TimeACDT,TemperatureF,Dew PointF,Humidity,Sea Level PressureIn,VisibilityMPH,Wind Direction,Wind SpeedMPH,Gust SpeedMPH,PrecipitationIn,Events,Conditions,WindDirDegrees,DateUTC
12:30 AM,73.4,64.4,73,29.74,6.2,SSW,19.6,-,N/A,,Unknown,200,2013-01-04 14:00:00
1:30 AM,73.4,64.4,73,29.74,6.2,South,21.9,-,N/A,,Unknown,190,2013-01-04 15:00:00
2:30 AM,71.6,62.6,73,29.74,6.2,South,21.9,-,N/A,,Unknown,190,2013-01-04 16:00:00
3:30 AM,71.6,62.6,73,29.74,6.2,South,23.0,-,N/A,,Unknown,190,2013-01-04 17:00:00
4:30 AM,71.6,60.8,69,29.77,6.2,South,21.9,-,N/A,,Unknown,180,2013-01-04 18:00:00
4:53 AM,71.6,59.0,64,29.80,6.2,South,21.9,33.4,N/A,,Unknown,180,2013-01-04 18:23:00
5:30 AM,69.8,59.0,68,29.80,6.2,South,20.7,-,N/A,,Unknown,180,2013-01-04 19:00:00
6:30 AM,69.8,60.8,73,29.83,6.2,South,19.6,-,N/A,,Unknown,180,2013-01-04 20:00:00
7:30 AM,71.6,60.8,69,29.86,6.2,South,21.9,-,N/A,,Unknown,180,2013-01-04 21:00:00
8:30 AM,71.6,60.8,69,29.89,6.2,South,19.6,-,N/A,,Unknown,170,2013-01-04 22:00:00
9:30 AM,73.4,60.8,65,29.92,6.2,South,19.6,-,N/A,,Unknown,180,2013-01-04 23:00:00
10:30 AM,77.0,60.8,57,29.92,6.2,South,20.7,-,N/A,,Unknown,180,2013-01-05 00:00:00
12:30 PM,80.6,59.0,48,29.92,6.2,South,24.2,-,N/A,,Unknown,190,2013-01-05 02:00:00
1:30 PM,82.4,53.6,37,29.92,6.2,South,23.0,-,N/A,,Unknown,190,2013-01-05 03:00:00
2:30 PM,86.0,55.4,35,29.92,6.2,SSW,27.6,-,N/A,,Unknown,200,2013-01-05 04:00:00
3:30 PM,84.2,57.2,40,29.92,6.2,South,28.8,-,N/A,,Unknown,190,2013-01-05 05:00:00
4:00 PM,84.2,57.2,40,29.92,6.2,South,26.5,38.0,N/A,,Unknown,190,2013-01-05 05:30:00
5:30 PM,82.4,59.0,45,29.92,6.2,SSW,28.8,-,N/A,,Unknown,200,2013-01-05 07:00:00
5:50 PM,80.6,60.8,51,29.92,6.2,South,27.6,39.1,N/A,,Unknown,190,2013-01-05 07:20:00
6:30 PM,80.6,60.8,51,29.92,6.2,SSW,27.6,-,N/A,,Unknown,200,2013-01-05 08:00:00
7:30 PM,78.8,59.0,51,29.95,6.2,SSW,28.8,-,N/A,,Unknown,200,2013-01-05 09:00:00
8:30 PM,75.2,60.8,61,29.98,6.2,South,24.2,-,N/A,,Unknown,190,2013-01-05 10:00:00
8:46 PM,75.2,60.8,61,29.98,6.2,SSW,23.0,34.5,N/A,,Unknown,200,2013-01-05 10:16:00
9:30 PM,75.2,57.2,53,30.01,6.2,South,23.0,-,N/A,,Unknown,190,2013-01-05 11:00:00
9:50 PM,75.2,57.2,53,30.01,6.2,South,20.7,32.2,N/A,,Unknown,190,2013-01-05 11:20:00
10:30 PM,73.4,57.2,57,30.04,6.2,South,20.7,-,N/A,,Unknown,190,2013-01-05 12:00:00